Location: Borovka
(49.7741°N, 14.5280°E)
Time: 05:53:03
(UTC+00:00)

USA 281 - Pass Details

Date: 17 November 2025
Orbit: 1079 x 1080 km, 106.0° (Epoch: 08 December)

Event Time Altitude Azimuth Distance (km) Brightness Sun altitude
Exits shadow 17:15:09 30° 85° (E) 1,823 3.8 -19.0°
Maximum altitude 17:17:15 38° 48° (NE) 1,603 3.7 -19.3°
Drops below altitude 10° 17:23:11 10° 344° (NNW) 2,931 5.6 -20.3°
Sets 17:25:53 0° 337° (NNW) 3,890 6.4 -20.7°
